Location: Archamps
(46.1365°N, 6.1329°E)
Time: 06:19:44
(UTC+00:00)

CZ-4B R/B - Pass Details

Date: 28 January 2023
Orbit: 473 x 641 km, 97.9° (Epoch: 21 March)

Event Time Altitude Azimuth Distance (km) Brightness Sun altitude
Rises 17:03:41 0° 153° (SSE) 2,874 6.4 -5.5°
Reaches altitude 10° 17:05:56 10° 149° (SSE) 1,950 5.5 -5.9°
Maximum altitude 17:10:03 53° 73° (ENE) 725 3.1 -6.6°
Drops below altitude 10° 17:14:00 10° 356° (N) 1,866 5.4 -7.2°
Sets 17:16:07 0° 352° (N) 2,737 6.3 -7.6°
